Dewpoint
26 25 26 26 27 27 26 23 19 14 16 18 18 19 21 22 24 26 25 30 33 33 33 34 35 35 36 36 37 37 38 38 39 39 41 42 42 43
26 24 25 26 25 26 26 24 23 20 17 19 19 19 20 20 24 26 25 30 32 33 33 33 34 34 34 35 36 37 38 38 39 40 41 42 42 43
23 23 24 23 25 24 25 24 23 22 20 20 20 20 21 21 22 24 25 25 25 31 33 33 33 33 34 34 34 35 36 37 38 39 40 41 41 40
24 24 23 22 23 23 23 23 22 22 21 19 20 21 21 22 23 23 24 24 25 29 32 32 32 33 33 34 34 35 36 37 37 37 37 37 38 39
30 30 29 28 26 24 22 22 22 21 21 21 21 22 23 24 23 24 25 25 25 29 30 31 31 32 33 33 33 33 33 34 34 34 34 35 35 36
29 29 27 24 22 21 21 22 21 21 22 22 22 22 23 24 24 24 24 23 23 23 27 28 30 31 31 32 32 32 32 32 33 34 34 33 33 35
28 27 27 28 27 26 25 25 24 23 23 20 23 24 21 24 24 24 23 23 23 24 24 24 24 25 25 28 28 29 30 32 33 33 33 35 35 35
27 25 22 22 26 27 27 28 28 26 22 19 19 24 25 23 23 23 23 24 22 24 23 23 23 22 23 23 28 30 31 32 32 32 32 33 35 35
22 21 21 21 25 24 27 29 29 30 29 27 25 23 23 23 24 24 25 24 24 23 23 21 22 21 21 21 27 29 30 31 32 32 32 32 33 34
21 21 22 23 24 26 25 26 27 26 25 25 24 24 24 25 26 25 24 23 22 22 22 19 20 19 20 21 27 29 30 30 31 31 31 31 32 33
21 23 24 24 26 29 27 26 23 23 24 26 27 28 28 27 26 24 21 21 18 18 19 19 19 19 20 20 20 27 28 28 29 29 30 30 30 30
23 23 26 25 29 28 25 22 20 19 20 21 20 19 20 20 26 22 19 19 19 18 20 20 20 21 17 20 21 22 20 25 27 28 29 30 30 27
24 23 23 28 28 27 26 20 20 22 22 17 17 18 19 20 21 21 22 18 20 19 20 23 19 20 20 18 19 20 20 20 20 21 26 28 28 28
23 23 24 27 24 23 22 24 25 24 17 17 18 19 20 20 21 21 21 22 22 21 22 22 20 18 19 17 16 18 20 21 21 21 22 25 28 29
24 25 24 22 22 20 22 23 22 17 17 18 18 19 20 20 20 19 19 20 19 20 21 21 21 20 20 18 17 18 19 20 22 21 22 22 22 24
24 17 18 19 20 19 18 17 17 17 19 19 18 19 19 17 18 18 17 18 17 17 20 20 20 20 19 19 19 18 19 19 20 22 22 23 24 25
20 15 15 15 15 15 16 17 17 17 18 18 17 18 17 17 17 18 17 17 17 17 17 19 21 22 22 21 19 19 19 19 20 21 21 22 23 24
15 14 15 15 15 16 16 16 17 18 17 17 16 16 16 16 16 19 19 17 17 17 18 19 20 20 20 22 24 19 20 20 21 22 24 23 23 25
15 15 15 16 16 16 16 16 15 16 15 15 15 15 15 16 19 16 16 18 18 18 19 21 24 23 20 17 21 25 25 25 25 25 25 25 25 25
16 15 15 16 16 16 16 16 16 16 15 15 15 17 17 16 16 16 18 19 19 21 23 23 23 24 23 23 24 25 28 27 26 25 25 26 27 29
15 15 16 16 17 17 17 16 15 15 18 18 14 14 16 18 18 19 20 23 24 22 21 22 24 29 29 28 24 23 25 28 30 29 29 28 26 26
15 15 16 17 17 17 16 16 15 15 14 15 15 16 18 20 20 21 22 21 21 22 23 25 27 27 27 26 24 24 24 26 28 30 32 33 30 26
14 15 15 15 16 17 17 16 15 15 15 15 16 17 19 20 22 23 24 23 23 25 26 25 26 26 25 26 26 25 24 25 26 27 28 31 33 33
Lifted_Index
5 6 9 10 11 10 10 11 10 7 7 10 14 17 19 20 21 22 22 22 22 22 22 21 21 20 19 19 18 17 17 17 16 16 15 15 14 14
7 8 9 10 11 12 12 13 12 10 9 11 15 18 19 20 21 22 22 22 22 22 22 21 21 20 19 19 18 18 17 17 16 16 15 15 14 14
11 10 10 10 11 13 14 14 15 13 12 14 17 18 19 20 21 21 22 22 22 22 21 21 20 20 19 19 19 18 18 17 17 16 16 15 14 14
12 11 10 10 11 14 15 15 16 16 16 16 17 19 20 20 21 21 21 22 22 22 21 21 20 20 20 19 19 19 18 18 17 16 15 14 13 12
12 11 11 11 11 14 16 17 17 18 18 18 18 19 20 20 20 21 21 21 21 21 21 21 21 21 20 20 19 18 18 17 16 15 14 13 12 11
11 11 11 13 14 15 17 18 18 18 18 18 18 18 19 20 20 20 21 21 21 20 20 20 20 20 19 18 17 17 16 15 14 13 12 12 12 11
11 11 14 17 18 18 19 20 19 19 18 18 18 18 19 20 20 20 20 20 20 20 19 19 18 17 16 15 15 14 13 13 13 12 12 12 11 11
13 14 17 19 20 20 21 21 20 19 19 18 18 18 19 20 21 20 20 19 18 19 18 16 15 14 13 13 13 12 12 12 12 12 12 12 11 11
17 18 19 20 20 21 21 21 21 20 20 20 19 20 20 21 21 20 19 18 17 17 15 13 13 13 12 12 12 12 11 11 11 11 11 11 11 11
19 20 20 20 21 21 21 20 20 20 21 21 21 21 21 21 21 20 19 17 15 15 14 13 12 12 12 11 11 10 10 10 10 10 11 11 11 10
20 21 21 21 21 21 20 20 20 20 21 21 21 21 21 20 20 19 17 15 14 13 14 13 12 12 11 10 9 9 8 9 9 10 10 10 10 10
20 21 21 21 21 21 21 20 20 21 21 21 20 20 19 19 17 16 15 14 13 13 14 14 13 12 10 9 8 8 8 8 8 9 9 10 10 10
20 20 21 21 21 22 22 21 21 21 21 20 19 18 17 16 15 15 15 15 14 14 14 14 13 12 11 9 8 8 8 8 8 9 9 10 10 10
20 20 21 22 22 22 22 22 22 21 20 18 17 16 15 14 14 14 15 15 14 14 14 15 14 13 12 10 9 9 9 9 9 9 9 9 10 10
21 21 22 22 22 22 22 22 21 20 18 16 15 14 13 13 14 14 14 14 14 14 14 14 14 14 13 12 10 10 9 9 9 9 9 10 10 10
22 22 22 22 22 22 22 21 19 18 16 14 13 13 13 13 14 14 14 14 13 12 13 13 14 13 13 13 12 10 10 9 9 10 10 10 10 10
22 22 22 22 22 21 20 18 17 15 14 13 13 13 13 13 14 14 14 13 12 12 12 12 13 13 12 12 12 11 10 10 10 10 10 10 10 10
22 22 22 21 21 19 17 15 14 13 13 13 13 13 13 13 13 14 14 13 12 12 12 12 12 12 11 11 12 12 11 10 10 10 10 10 9 9
22 22 22 21 19 17 15 13 13 13 13 13 13 13 13 13 13 13 14 13 13 12 12 13 13 12 11 10 11 12 11 11 10 10 10 10 9 9
23 22 21 19 17 15 14 13 13 12 12 13 13 13 13 13 13 13 13 13 13 12 12 12 13 13 12 11 10 10 10 10 10 10 10 10 10 10
22 21 19 18 16 15 14 13 12 12 12 12 13 13 13 13 13 13 14 14 13 13 12 12 13 13 12 11 10 9 9 10 10 10 10 10 10 10
21 19 18 16 15 14 14 13 12 12 12 12 13 13 13 13 13 14 14 14 13 13 13 13 13 13 12 11 10 9 9 10 10 10 10 11 11 10
19 18 17 16 15 14 13 13 12 12 12 12 12 13 13 13 14 14 14 14 14 13 13 13 13 12 12 11 10 10 10 10 10 10 10 11 11 11